Кочкорка

Киргизия     42°12′57″N   75°45′19″E
темп.,
°C
ветер,
м/с
пор.,
м/с
влажн.,
%
обл.,
%
осадки,
мм/ч
давл.,
гПа
погр.,
м
13 апреля, вт
вт1300:00+7юв1150100 0.3 102048
03:00+6зюз2248100 0.0 102031
06:00+4ююз224999 0.0 102117
09:00+7зюз1139100 0.0 1021377
12:00+11сз1130100 0.0 10191006
15:00+13ссв3225100 0.1 10162292
18:00+11ссв5539100 0.4 10181111
21:00+8ссз2253100 0.4 1022444
14 апреля, ср
ср1400:00+7всв226674 0.4 1021202
03:00+5всв2376100 0.1 102087
06:00+4всв11727 0.1 102117
09:00+6всв11523 0.0 1021547
12:00+10св22395 0.0 10181276
15:00+12св4333100 0.0 10161586
18:00+11всв5534100 0.0 1016672
21:00+9св3441100 0.1 1018303
15 апреля, чт
чт1500:00+7св224396 0.2 101751
03:00+6с00489 0.0 101711
06:00+5ююз005123 0.0 101710
09:00+8зюз124183 0.1 1017450
12:00+13з23300 0.1 10141299
15:00+16з681465 0.0 10114226
18:00+15зюз351620 0.0 10113505
21:00+11всв34347 0.0 1013120
16 апреля, пт
пт1600:00+9в224297 0.0 101458
03:00+7св1145100 0.0 101424
06:00+7св1144100 0.0 101314
09:00+9св1136100 0.0 1013344
12:00+12ссз1228100 0.0 10111014
15:00+15зюз0320100 0.0 10092804
18:00+14с3329100 0.1 10112120
21:00+9ссв2254100 0.3 1015358
17 апреля, сб
сб1700:00+8сз0058100 0.3 101440
03:00+7зюз0159100 0.0 101314
06:00+6юз0061100 0.0 101311
09:00+9ссв1151100 0.0 1013583
12:00+12с2339100 0.0 10111611
15:00+14св4432100 0.2 10092283
18:00+12св5544100 0.4 1010908
21:00+9ссв4559100 0.2 1012437